Location: Gu�tanj
(46.5431°N, 14.9692°E)
Time: 20:14:43
(UTC+00:00)

FALCON 9 DEB - Pass Details

Date: 03 March 2021
Orbit: 370 x 389 km, 53.0° (Epoch: 20 April)

Event Time Altitude Azimuth Distance (km) Brightness Sun altitude
Rises 18:14:14 0° 292° (WNW) 2,314 8.4 -15.4°
Reaches altitude 10° 18:16:33 10° 306° (NW) 1,455 6.7 -15.8°
Maximum altitude 18:19:20 25° 4° (N) 847 4.6 -16.3°
Enters shadow 18:20:18 22° 34° (NE) 943 4.6 -16.5°
